x

9416841 - Arena Cove, Ca (anvc1) Weather Station

12:54pm - Sun 19th Feb 2017 All times are PST. -8 hours from GMT.

  • Wind
    18mph, 23mph gusts
  • Sea Temp 54°f
  • Air Temp 52°f
  • Sea Pressure 1007.7mb
  • 9416841 - Arena Cove, Ca
  • 9416841 - Arena Cove, Ca

More Historic Weather Station data

Upgrade to MSW Pro to gain access to the past 30 days of data for over 8000 Wavebouys and Weather Stations around the globe.

Join Pro

Comparision Forecast

View Surf forecast
   
Sun 02/19 12:54pm 18 23 mph 1007.7mb 54f 52f
12:48pm 17 30 mph 1007.7mb 54f 52f
12:42pm 15 22 mph 1007.9mb 54f 52f
12:36pm 14 22 mph 1008mb 54f 52f
12:30pm 16 25 mph 1008mb 54f 52f
12:24pm 16 23 mph 1008.2mb 54f 52f
12:18pm 18 25 mph 1008.2mb 54f 52f
12:12pm 17 23 mph 1008.4mb 54f 52f
12:06pm 18 25 mph 1008.4mb 54f 52f
12:00pm 16 22 mph 1008.4mb 54f 51f
11:54am 17 24 mph 1008.6mb 54f 51f
11:48am 20 26 mph 1008.6mb 54f 52f
11:42am 17 24 mph 1008.7mb 54f 52f
11:36am 16 26 mph 1008.6mb 54f 52f
11:30am 17 25 mph 1008.7mb 54f 52f
11:24am 17 23 mph 1008.7mb 54f 52f
11:18am 17 23 mph 1008.7mb 54f 52f
11:12am 16 24 mph 1008.7mb 54f 51f
11:06am 18 24 mph 1008.7mb 54f 51f
11:00am 16 26 mph 1008.6mb 54f 51f
10:54am 20 25 mph 1008.4mb 54f 51f
10:48am 17 24 mph 1008.4mb 54f 51f
10:42am 20 26 mph 1008.5mb 54f 51f
10:36am 16 25 mph 1008.5mb 54f 51f
10:30am 16 25 mph 1008.5mb 54f 51f
10:24am 17 29 mph 1008.5mb 54f 51f
10:18am 17 24 mph 1008.5mb 54f 51f
10:12am 16 24 mph 1008.4mb 54f 51f
10:06am 17 23 mph 1008.3mb 54f 51f
10:00am 15 21 mph 1008.3mb 54f 51f
9:54am 16 22 mph 1008.2mb 54f 51f
9:48am 17 23 mph 1008.3mb 54f 51f
9:42am 17 23 mph 1008mb 54f 51f
9:36am 15 21 mph 1008.2mb 54f 51f
9:30am 17 23 mph 1008.1mb 54f 51f
9:24am 17 24 mph 1008mb 54f 52f
9:18am 14 21 mph 1008.1mb 54f 52f
9:12am 15 22 mph 1008mb 54f 52f
9:06am 16 24 mph 1007.9mb 54f 52f
9:00am 18 26 mph 1007.9mb 54f 52f
8:54am 14 21 mph 1007.9mb 54f 52f
8:48am 16 21 mph 1007.9mb 54f 52f
8:42am 18 23 mph 1007.9mb 54f 52f
8:36am 16 23 mph 1007.8mb 54f 52f
8:30am 17 23 mph 1007.8mb 54f 52f
8:24am 10 15 mph 1007.9mb 54f 52f
8:18am 5 18 mph 1007.9mb 54f 52f
8:12am 14 18 mph 1007.7mb 54f 52f
8:06am 8 14 mph 1007.8mb 54f 52f
8:00am 6 13 mph 1007.8mb 54f 52f
7:54am 2 13 mph 1007.6mb 54f 52f
7:48am 13 18 mph 1007.5mb 54f 52f
7:42am 5 20 mph 1007.5mb 54f 52f
7:36am 7 16 mph 1007.5mb 54f 51f
7:30am 14 18 mph 1007.4mb 54f 51f
7:24am 13 21 mph 1007.4mb 54f 51f
7:18am 13 17 mph 1007.2mb 54f 51f
7:12am 14 20 mph 1007.2mb 54f 51f
7:06am 11 21 mph 1007.1mb 54f 51f
7:00am 15 21 mph 1007.2mb 54f 51f
6:54am 16 21 mph 1007.2mb 54f 51f
6:48am 14 17 mph 1007.2mb 54f 51f
6:42am 13 18 mph 1007.2mb 54f 50f
6:36am 14 21 mph 1007.1mb 54f 50f
6:30am 15 21 mph 1007mb 54f 50f
6:24am 15 23 mph 1007mb 54f 50f
6:18am 16 24 mph 1007mb 54f 50f
6:12am 14 21 mph 1007.1mb 54f 50f
6:06am 15 21 mph 1007mb 54f 50f
6:00am 14 22 mph 1006.9mb 54f 50f
5:54am 14 21 mph 1006.9mb 54f 50f
5:48am 14 18 mph 1007mb 54f 50f
5:42am 15 18 mph 1007mb 54f 50f
5:36am 13 20 mph 1006.9mb 54f 49f
5:30am 15 20 mph 1006.9mb 54f 49f
5:24am 13 17 mph 1007mb 54f 49f
5:18am 13 18 mph 1007mb 54f 49f
5:12am 14 20 mph 1007.1mb 54f 49f
5:06am 14 20 mph 1007.1mb 54f 49f
5:00am 13 18 mph 1007.1mb 54f 49f
4:54am 14 18 mph 1007.4mb 54f 49f
4:48am 13 16 mph 1007.4mb 54f 49f
4:42am 14 18 mph 1007.3mb 54f 49f
4:36am 11 16 mph 1007.3mb 54f 49f
4:30am 11 17 mph 1007.4mb 54f 49f
4:24am 13 17 mph 1007.3mb 54f 49f
4:18am 14 18 mph 1007.3mb 54f 49f
4:12am 13 18 mph 1007.2mb 54f 48f
4:06am 14 20 mph 1007.3mb 54f 48f
4:00am 11 17 mph 1007.5mb 54f 48f
3:54am 11 16 mph 1007.6mb 54f 48f
3:48am 13 17 mph 1007.5mb 54f 48f
3:42am 9 16 mph 1007.6mb 54f 48f
3:36am 10 14 mph 1007.5mb 54f 48f
3:30am 9 15 mph 1007.6mb 54f 48f
3:24am 11 16 mph 1007.8mb 54f 48f
3:18am 11 15 mph 1007.8mb 54f 48f
3:12am 11 17 mph 1007.8mb 54f 48f
3:06am 9 15 mph 1008mb 54f 48f
3:00am 11 15 mph 1008mb 54f 48f
2:54am 11 17 mph 1008.1mb 54f 48f
2:48am 10 16 mph 1008.2mb 54f 47f
2:42am 9 14 mph 1008.3mb 54f 47f
2:36am 8 15 mph 1008.2mb 54f 47f
2:30am 11 15 mph 1008.3mb 54f 47f
2:24am 7 13 mph 1008.5mb 54f 47f
2:18am 10 14 mph 1008.4mb 54f 47f
2:12am 9 13 mph 1008.4mb 54f 47f
2:06am 9 14 mph 1008.4mb 54f 47f
2:00am 10 14 mph 1008.3mb 54f 47f
1:54am 8 13 mph 1008.5mb 54f 47f
1:48am 9 11 mph 1008.6mb 54f 47f
1:42am 7 13 mph 1008.5mb 54f 47f
1:36am 8 13 mph 1008.3mb 54f 47f
1:30am 8 11 mph 1008.3mb 54f 47f
1:24am 8 11 mph 1008.4mb 54f 47f
1:18am 8 11 mph 1008.6mb 54f 47f
1:12am 7 14 mph 1008.4mb 54f 47f
1:06am 8 14 mph 1008.4mb 54f 47f
1:00am 9 11 mph 1008.4mb 54f 47f
12:54am 7 11 mph 1008.6mb 54f 47f
12:48am 7 10 mph 1008.5mb 54f 47f
12:42am 7 11 mph 1008.5mb 54f 47f
12:36am 7 11 mph 1008.7mb 54f 47f
12:30am 7 10 mph 1008.8mb 54f 47f
12:24am 8 11 mph 1008.7mb 54f 47f
12:18am 7 10 mph 1008.7mb 54f 47f
12:12am 7 10 mph 1008.7mb 54f 47f
12:06am 7 10 mph 1008.7mb 54f 47f
12:00am 6 8 mph 1008.6mb 54f 47f
Sat 02/18 11:54pm 7 8 mph 1008.7mb 54f 46f
11:48pm 5 7 mph 1008.9mb 54f 47f
11:42pm 5 7 mph 1008.6mb 54f 46f
11:36pm 5 7 mph 1008.6mb 54f 46f
11:30pm 7 8 mph 1008.6mb 54f 46f
11:24pm 5 7 mph 1008.7mb 54f 46f
11:18pm 6 9 mph 1008.7mb 54f 47f
11:12pm 6 9 mph 1008.7mb 54f 47f
11:06pm 6 9 mph 1008.6mb 54f 47f
11:00pm 6 8 mph 1008.6mb 54f 47f
10:54pm 6 8 mph 1008.7mb 54f 47f
10:48pm 6
mph
1008.7mb 54f 47f
10:42pm 2 3 mph 1008.7mb 54f 47f
10:36pm 2 5 mph 1008.8mb 54f 48f
10:30pm 1 3 mph 1008.7mb 54f 48f
10:24pm 3 7 mph 1008.7mb 54f 48f
10:18pm 8 11 mph 1008.7mb 54f 48f
10:12pm 8 10 mph 1008.7mb 54f 49f
10:06pm 8 13 mph 1008.7mb 54f 49f
10:00pm 10 11 mph 1008.6mb 54f 50f
9:54pm 7 8 mph 1008.5mb 54f 49f
9:48pm 5 7 mph 1008.4mb 54f 50f
9:42pm 6 8 mph 1008.5mb 54f 49f
9:36pm 2 6 mph 1008.5mb 54f 48f
9:30pm 5 6 mph 1008.4mb 54f 47f
9:24pm 6 7 mph 1008.1mb 54f 47f
9:18pm 5 6 mph 1008.3mb 54f 47f
9:12pm 5 6 mph 1008.2mb 54f 47f
9:06pm 3 6 mph 1008.2mb 54f 47f
9:00pm 5 6 mph 1008.1mb 54f 47f
8:54pm 5 6 mph 1007.9mb 54f 47f
8:48pm 3 5 mph 1007.8mb 54f 49f
8:42pm 2 5 mph 1007.9mb 54f 49f
8:36pm 5 6 mph 1007.9mb 54f 50f
8:30pm 3 8 mph 1007.8mb 54f 50f
8:24pm 6 8 mph 1008mb 54f 50f
8:18pm 3 5 mph 1008mb 54f 50f
8:12pm 2 5 mph 1007.9mb 54f 50f
8:06pm 3 7 mph 1007.9mb 54f 50f
8:00pm 5 8 mph 1007.6mb 54f 50f
7:54pm 5 7 mph 1007.4mb 54f 50f
7:48pm 3 6 mph 1007.4mb 54f 50f
7:42pm 2 5 mph 1007.2mb 54f 50f
7:36pm 2 5 mph 1007.1mb 54f 50f
7:30pm 1 6 mph 1007.1mb 54f 50f
7:24pm 3 5 mph 1007.1mb 54f 50f
7:18pm 3 6 mph 1007.2mb 54f 50f
7:12pm 3 10 mph 1007.3mb 54f 50f
7:06pm 6 9 mph 1007.3mb 54f 50f
7:00pm 6 9 mph 1007.3mb 54f 50f
6:54pm 9 13 mph 1007.3mb 54f 50f
6:48pm 6 8 mph 1007mb 54f 50f
6:42pm 5 7 mph 1006.9mb 54f 50f
6:36pm 7 11 mph 1007mb 54f 50f
6:30pm 9 13 mph 1007.1mb 54f 50f
6:24pm 10 15 mph 1007.1mb 54f 50f
6:18pm 11 15 mph 1007.1mb 54f 50f
6:12pm 8 13 mph 1006.9mb 54f 50f
6:06pm 9 14 mph 1006.8mb 54f 50f
6:00pm 8 14 mph 1006.7mb 54f 50f
5:54pm 8 14 mph 1006.7mb 54f 50f
5:48pm 10 13 mph 1006.5mb 54f 50f
5:42pm 7 10 mph 1006.4mb 54f 50f
5:36pm 7 10 mph 1006.3mb 54f 50f
5:30pm 8 13 mph 1006.2mb 54f 50f
5:24pm 6 9 mph 1006.2mb 54f 50f
5:18pm 7 9 mph 1006.2mb 54f 50f
5:12pm 6 9 mph 1006.3mb 54f 50f
5:06pm 7 11 mph 1006.2mb 54f 50f
5:00pm 7 11 mph 1006mb 54f 50f
4:54pm 7 11 mph 1005.9mb 54f 50f
4:48pm 7 10 mph 1005.8mb 54f 50f
4:42pm 7 13 mph 1005.9mb 54f 51f
4:36pm 11 15 mph 1005.9mb 54f 51f
4:30pm 8 11 mph 1005.8mb 54f 51f
4:24pm 8 14 mph 1006.1mb 54f 51f
4:18pm 8 16 mph 1005.9mb 54f 51f
4:12pm 10 15 mph 1005.9mb 55f 51f
4:06pm 10 14 mph 1005.8mb 55f 51f
4:00pm 8 15 mph 1005.8mb 55f 51f
3:54pm 11 16 mph 1005.9mb 55f 51f
3:48pm 11 16 mph 1005.6mb 55f 51f
3:42pm 10 16 mph 1005.6mb 55f 51f
3:36pm 11 18 mph 1005.7mb 55f 51f
3:30pm 14 18 mph 1005.7mb 55f 51f
3:24pm 13 17 mph 1005.6mb 55f 51f
3:18pm 11 20 mph 1005.4mb 55f 51f
3:12pm 11 16 mph 1005.3mb 55f 51f
3:06pm 9 14 mph 1005.4mb 55f 51f
3:00pm 10 14 mph 1005.4mb 55f 51f
2:54pm 9 16 mph 1005.6mb 55f 51f
2:48pm 8 14 mph 1005.8mb 55f 51f
2:42pm 11 18 mph 1005.6mb 55f 51f
2:36pm 10 15 mph 1005.3mb 55f 51f
2:30pm 10 16 mph 1005.3mb 55f 51f
2:24pm 11 17 mph 1005.5mb 55f 51f
2:18pm 9 16 mph 1005.4mb 55f 51f
2:12pm 10 16 mph 1005.5mb 55f 51f
2:06pm 10 15 mph 1005.5mb 55f 51f
2:00pm 11 15 mph 1005.5mb 55f 51f
1:54pm 10 14 mph 1005.5mb 55f 51f
1:48pm 13 18 mph 1005.3mb 55f 51f
1:42pm 13 16 mph 1005.1mb 55f 51f
1:36pm 13 20 mph 1005.1mb 55f 51f
1:30pm 10 18 mph 1004.8mb 55f 51f
1:24pm 10 18 mph 1004.8mb 55f 51f
1:18pm 11 18 mph 1004.7mb 55f 51f
1:12pm 14 18 mph 1004.7mb 55f 51f
1:06pm 11 16 mph 1004.6mb 55f 51f
1:00pm 11 16 mph 1004.6mb 55f 51f
12:54pm 13 17 mph 1004.8mb 55f 51f
12:48pm 11 16 mph 1004.9mb 55f 51f
12:42pm 11 17 mph 1004.9mb 55f 51f
12:36pm 11 16 mph 1004.7mb 55f 51f
12:30pm 9 16 mph 1004.8mb 55f 51f
12:24pm 10 16 mph 1005mb 55f 51f
12:18pm 15 20 mph 1005mb 55f 51f
12:12pm 13 18 mph 1004.9mb 55f 51f
12:06pm 13 20 mph 1004.9mb 55f 51f
12:00pm 10 22 mph 1004.9mb 55f 51f
11:54am 11 17 mph 1005mb 55f 51f
11:48am 11 18 mph 1005.3mb 55f 51f
11:42am 11 20 mph 1005.4mb 55f 51f
11:36am 14 20 mph 1005.4mb 55f 51f
11:30am 13 20 mph 1005.5mb 55f 51f
11:24am 10 20 mph 1005.5mb 55f 51f
11:18am 14 20 mph 1005.4mb 55f 51f
11:12am 11 20 mph 1005.3mb 55f 51f
11:06am 14 17 mph 1005.1mb 55f 51f
11:00am 10 17 mph 1005mb 55f 51f
10:54am 13 22 mph 1005mb 55f 51f
10:48am 10 16 mph 1005mb 55f 51f
10:42am 13 20 mph 1005mb 55f 51f
10:36am 15 21 mph 1004.9mb 55f 51f
10:30am 11 18 mph 1004.9mb 55f 51f
10:24am 11 20 mph 1004.9mb 55f 51f
10:18am 14 21 mph 1004.9mb 55f 51f
10:12am 13 22 mph 1004.9mb 55f 51f
10:06am 14 22 mph 1004.8mb 55f 51f
10:00am 16 24 mph 1004.7mb 55f 51f
9:54am 15 22 mph 1004.6mb 55f 51f
9:48am 14 22 mph 1004.5mb 55f 51f
9:42am 15 22 mph 1004.3mb 55f 51f
9:36am 11 16 mph 1004.1mb 55f 51f
9:30am 11 17 mph 1004mb 55f 51f
9:24am 14 21 mph 1003.9mb 55f 51f
9:18am 14 18 mph 1003.8mb 55f 51f
9:12am 11 20 mph 1003.7mb 55f 51f
9:06am 13 23 mph 1003.7mb 55f 51f
9:00am 13 21 mph 1003.7mb 55f 51f
8:54am 14 24 mph 1003.7mb 55f 51f
8:48am 13 22 mph 1003.6mb 55f 51f
8:42am 14 20 mph 1003.5mb 55f 51f
8:36am 13 22 mph 1003.5mb 55f 51f
8:30am 14 21 mph 1003.3mb 55f 51f
8:24am 14 20 mph 1003.1mb 55f 51f
8:18am 10 18 mph 1003.1mb 55f 51f
8:12am 13 16 mph 1003mb 55f 51f
8:06am 11 20 mph 1002.8mb 55f 51f
8:00am 14 20 mph 1002.5mb 55f 51f
7:54am 11 18 mph 1002.4mb 55f 51f
7:48am 13 17 mph 1002.2mb 55f 51f
7:42am 10 16 mph 1002.1mb 55f 51f
7:36am 10 18 mph 1002.1mb 55f 51f
7:30am 9 16 mph 1002mb 55f 50f
7:24am 9 14 mph 1001.9mb 55f 50f
7:18am 10 18 mph 1001.8mb 55f 51f
7:12am 10 16 mph 1001.6mb 55f 50f
7:06am 11 18 mph 1001.6mb 55f 51f
7:00am 10 18 mph 1001.6mb 55f 50f
6:54am 10 18 mph 1001.6mb 55f 50f
6:48am 13 16 mph 1001.4mb 55f 50f
6:42am 15 25 mph 1001.3mb 55f 51f
6:36am 15 21 mph 1001.2mb 55f 51f
6:30am 14 22 mph 1001.2mb 55f 51f
6:24am 13 21 mph 1001.1mb 55f 50f
6:18am 14 22 mph 1001mb 55f 51f
6:12am 14 20 mph 1000.9mb 55f 51f
6:06am 14 21 mph 1000.8mb 55f 51f
6:00am 13 21 mph 1000.8mb 55f 51f
5:54am 11 20 mph 1000.8mb 55f 51f
5:48am 15 22 mph 1000.7mb 55f 51f
5:42am 16 26 mph 1000.5mb 55f 51f
5:36am 15 21 mph 1000.4mb 55f 51f
5:30am 13 21 mph 1000.2mb 55f 51f
5:24am 11 24 mph 1000mb 55f 51f
5:18am 11 26 mph 999.9mb 55f 51f
5:12am 14 22 mph 999.8mb 55f 51f
5:06am 13 20 mph 999.7mb 55f 51f
5:00am 14 22 mph 999.5mb 55f 51f
4:54am 14 21 mph 999.4mb 55f 51f
4:48am 11 16 mph 999.2mb 55f 51f
4:42am 13 22 mph 999.1mb 55f 51f
4:36am 15 22 mph 998.9mb 55f 51f
4:30am 10 21 mph 998.8mb 55f 51f
4:24am 15 22 mph 998.7mb 55f 51f
4:18am 13 22 mph 998.5mb 55f 50f
4:12am 14 23 mph 998.5mb 55f 50f
4:06am 15 21 mph 998.3mb 55f 50f
4:00am 14 24 mph 998.2mb 55f 50f
3:54am 16 28 mph 998.2mb 55f 50f
3:48am 18 25 mph 998.2mb 55f 51f
3:42am 15 22 mph 997.9mb 55f 51f
3:36am 13 22 mph 997.8mb 55f 51f
3:30am 15 22 mph 997.7mb 55f 51f
3:24am 13 22 mph 997.6mb 55f 52f
3:18am 13 20 mph 997.4mb 55f 52f
3:12am 13 18 mph 997.3mb 55f 52f
3:06am 10 18 mph 997.2mb 55f 52f
3:00am 10 22 mph 997mb 55f 52f
2:54am 11 17 mph 996.9mb 55f 52f
2:48am 10 17 mph 996.9mb 55f 52f
2:42am 13 18 mph 996.7mb 55f 52f
2:36am 9 16 mph 996.6mb 55f 52f
2:30am 10 16 mph 996.5mb 55f 51f
2:24am 10 17 mph 996.3mb 55f 52f
2:18am 9 16 mph 996.2mb 55f 52f
2:12am 10 17 mph 996.3mb 55f 52f
2:06am 8 16 mph 996.2mb 55f 52f
2:00am 15 21 mph 996.1mb 55f 51f
1:54am 9 17 mph 996mb 55f 51f
1:48am 7 11 mph 995.9mb 55f 51f
1:42am 5 11 mph 995.9mb 55f 51f
1:36am 7 11 mph 995.8mb 55f 51f
1:30am 2 7 mph 995.7mb 55f 51f
1:24am 1 8 mph 995.7mb 55f 51f
1:18am 3 7 mph 995.5mb 55f 50f
1:12am 3 7 mph 995.5mb 55f 50f
1:06am 2 6 mph 995.2mb 55f 50f
1:00am 3 6 mph 995.1mb 55f 50f
12:54am 1 3 mph 995mb 55f 51f
12:48am 2 8 mph 994.9mb 55f 50f
12:42am 3 7 mph 994.8mb 55f 50f
12:36am 3 7 mph 994.7mb 55f 50f
12:30am 2 6 mph 994.6mb 55f 50f
12:24am 2 10 mph 994.5mb 55f 50f
12:18am 6 11 mph 994.5mb 55f 51f
12:12am 5 8 mph 994.4mb 55f 50f
12:06am 5 8 mph 994.3mb 55f 50f
12:00am 6 13 mph 994.1mb 55f 51f
Fri 02/17 11:54pm 7 16 mph 994mb 55f 51f
11:48pm 7 10 mph 993.9mb 55f 51f
11:42pm 6 10 mph 993.7mb 55f 51f
11:36pm 8 14 mph 993.6mb 55f 51f
11:30pm 8 14 mph 993.5mb 55f 51f
11:24pm 6 9 mph 993.4mb 55f 51f
11:18pm 6 9 mph 993.3mb 55f 51f
11:12pm 3 7 mph 993.2mb 55f 50f
11:06pm 6 11 mph 993.1mb 55f 50f
11:00pm 6 10 mph 993.1mb 55f 50f
10:54pm 5 9 mph 993.1mb 55f 50f
10:48pm 5 10 mph 993mb 55f -
10:42pm 5 14 mph 992.9mb 55f -
10:36pm 5 13 mph 992.9mb 55f -
10:30pm 7 11 mph 992.8mb 55f 50f
10:24pm 5 11 mph 992.7mb 55f 50f
10:18pm 5 11 mph 992.7mb 55f 50f
10:12pm 5 10 mph 992.5mb 55f 50f
10:06pm 5 10 mph 992.4mb 55f 50f
10:00pm 5 13 mph 992.4mb 55f 50f
9:54pm 3 15 mph 992.3mb 55f 50f
9:48pm 6 10 mph 992.3mb 55f 50f
9:42pm 6 10 mph 992.1mb 55f 50f
9:36pm 3 10 mph 992.1mb 55f 50f
9:30pm 6 10 mph 991.9mb 55f 50f
9:24pm 6 13 mph 991.8mb 55f 50f
9:18pm 8 15 mph 991.8mb 55f 50f
9:12pm 6 16 mph 991.7mb 55f 50f
9:06pm 7 10 mph 991.7mb 55f 50f
9:00pm 8 11 mph 991.5mb 55f 50f
8:54pm 9 14 mph 991.4mb 55f 50f
8:48pm 7 14 mph 991.3mb 55f 51f
8:42pm 7 14 mph 991.2mb 55f 51f
8:36pm 7 13 mph 991.1mb 55f 51f
8:30pm 7 13 mph 991mb 55f 51f
8:24pm 8 11 mph 990.9mb 55f 51f
8:18pm 6 10 mph 990.7mb 55f 52f
8:12pm 6 10 mph 990.6mb 55f 52f
8:06pm 7 8 mph 990.4mb 55f 53f
8:00pm 2 3 mph 990.3mb 55f 53f
7:54pm 2 5 mph 990.2mb 55f 53f
7:48pm 2 5 mph 990.1mb 55f 53f
7:42pm 3 5 mph 990mb 55f 53f
7:36pm 3 5 mph 989.9mb 55f 53f
7:30pm 2 5 mph 989.8mb 55f 53f
7:24pm 2 6 mph 989.8mb 55f 53f
7:18pm 6 7 mph 989.7mb 55f 53f
7:12pm 2 5 mph 989.7mb 55f 53f
7:06pm 3 5 mph 989.6mb 55f 53f
7:00pm  -  5 mph 989.5mb 55f 53f
6:54pm 3 5 mph 989.4mb 55f 53f
6:48pm  -  3 mph 989.3mb 55f 53f
6:42pm 2 5 mph 989.2mb 55f 53f
6:36pm 2 3 mph 989.2mb 55f 53f
6:30pm 2 3 mph 989.2mb 55f 53f
6:24pm 3
mph
989.1mb 55f 53f
6:18pm 3 5 mph 989mb 55f 53f
6:12pm 2 5 mph 989mb 55f 53f
6:06pm 3 5 mph 988.9mb 55f 53f
6:00pm 3 5 mph 988.8mb 55f 53f
5:54pm 2 5 mph 988.8mb 55f 53f
5:48pm 3 6 mph 988.7mb 55f 53f
5:42pm 3 7 mph 988.6mb 55f 53f
5:36pm 5 9 mph 988.5mb 55f 54f
5:30pm 6 9 mph 988.4mb 55f 54f
5:24pm 5 8 mph 988.4mb 55f 54f
5:18pm 6 8 mph 988.3mb 55f 54f
5:12pm 5 10 mph 988.2mb 55f 54f
5:06pm 7 9 mph 988.2mb 55f 54f
5:00pm 7 9 mph 988.2mb 55f 54f
4:54pm 7 11 mph 988.1mb 55f 54f
4:48pm 9 14 mph 988.1mb 55f 54f
4:42pm 8 14 mph 988mb 55f 55f
4:36pm 8 14 mph 988mb 55f 55f
4:30pm 7 10 mph 987.9mb 55f 55f
4:24pm 6 10 mph 987.8mb 55f 55f
4:18pm 8 14 mph 987.7mb 55f 55f
4:12pm 8 11 mph 987.6mb 55f 56f
4:06pm 8 11 mph 987.6mb 55f 56f
4:00pm 6 9 mph 987.4mb 55f 55f
3:54pm 7 9 mph 987.3mb 55f 55f
3:48pm 7 9 mph 987.3mb 55f 55f
3:42pm 8 14 mph 987.4mb 55f 55f
3:36pm 8 14 mph 987.4mb 55f 55f
3:30pm 7 10 mph 987.3mb 55f 55f
3:24pm 6 10 mph 987.1mb 55f 55f
3:18pm 7 11 mph 987.1mb 55f 55f
3:12pm 6 10 mph 986.9mb 55f 55f
3:06pm 6 10 mph 986.7mb 55f 55f
3:00pm 6 8 mph 986.6mb 55f 55f
2:54pm 5 8 mph 986.5mb 55f 55f
2:48pm 5 8 mph 986.5mb 55f -
2:42pm 7 15 mph 986.4mb 55f 55f
2:36pm 9 17 mph 986.3mb 55f 55f
2:30pm 9 17 mph 986.3mb 55f 55f
2:24pm 10 15 mph 986.3mb 55f 55f
2:18pm 8 15 mph 986.1mb 55f 55f
2:12pm 9 15 mph 986.1mb 55f 55f
2:06pm 10 16 mph 985.9mb 55f 55f
2:00pm 5 15 mph 985.8mb 55f 55f
1:54pm 9 23 mph 985.8mb 55f 55f
1:48pm 14 22 mph 985.6mb 55f -
1:42pm 14 21 mph 985.5mb 55f 55f
1:36pm 10 16 mph 985.3mb 55f 55f
1:30pm 7 18 mph 985.3mb 55f 54f
1:24pm 11 21 mph 985.3mb 55f 54f
1:18pm 11 21 mph - - -
1:12pm 15 24 mph 985.1mb 55f 54f
1:06pm 15 24 mph 985.1mb 55f 54f
1:00pm 10 24 mph 985.1mb 55f 55f
12:54pm 10 20 mph 985mb 55f 54f
12:48pm 11 18 mph 985.1mb - -
12:42pm 8 18 mph 985.2mb 55f 54f
12:36pm 11 20 mph 985.3mb 55f 54f
12:30pm 11 20 mph 985.4mb 55f 54f
12:24pm 9 21 mph 985.4mb 55f 53f
12:18pm 8 20 mph 985.4mb 55f 53f
12:12pm 7 17 mph 985.6mb 55f 53f
12:06pm 7 14 mph 985.7mb 55f 53f
12:00pm 10 20 mph 985.8mb 55f 54f
11:54am 8 15 mph 986.1mb 55f 53f
11:48am 9 17 mph 986.1mb - -
11:42am 9 17 mph 986.1mb 55f 53f
11:36am 11 25 mph 986.4mb 55f 53f
11:30am 5 13 mph 986.7mb 55f 53f
11:24am 3 14 mph 986.8mb 55f 53f
11:18am 7 15 mph 987mb 55f 53f
11:12am 7 13 mph 987.2mb 55f 52f
11:06am 8 13 mph 987.4mb 55f 52f
11:00am 7 11 mph 987.6mb 55f 52f
10:54am 8 14 mph 987.8mb 55f 52f
10:48am 6 14 mph 987.9mb 55f 52f
10:42am 8 15 mph 988.1mb 55f 52f
10:36am 6 11 mph 988.2mb 55f 51f
10:30am 6 11 mph 988.2mb 55f 51f
10:24am 6 11 mph 988.3mb 55f 51f
10:18am 5 11 mph 988.7mb 55f 51f
10:12am 6 15 mph 988.9mb 55f 51f
10:06am 6 14 mph 989mb 55f 51f
10:00am 7 14 mph 989mb 55f 51f
9:54am 8 22 mph 989.2mb 55f 51f
9:48am 8 11 mph 989.4mb 55f 51f
9:42am 9 16 mph 989.6mb 55f 51f
9:36am 8 16 mph 989.8mb 55f 51f
9:30am 5 9 mph 990mb 55f 51f
9:24am 5 7 mph 990.3mb 55f 51f
9:18am 6 10 mph 990.7mb - -
9:12am 6 9 mph 991.1mb 55f 51f
9:06am 6 9 mph 991.1mb 55f 51f
9:00am 2 9 mph 991.7mb 55f 51f
8:54am 3 11 mph 992.1mb 55f 51f
8:48am 6 13 mph 992.4mb 55f 51f
8:42am 6 15 mph 992.6mb 55f 51f
8:36am 8 13 mph 992.6mb 55f 51f
8:30am 6 9 mph 992.9mb 55f 51f
8:24am 2 7 mph 993.1mb 55f 52f
8:18am 5 10 mph 992.9mb 55f 52f
8:12am 6 10 mph 993mb 55f 52f
8:06am 6 10 mph 993.2mb 55f 52f
8:00am 6 14 mph 993.3mb 55f 52f
7:54am 6 10 mph 993.2mb 55f 51f
7:48am 6 10 mph 993.2mb 55f 51f
7:42am 2 5 mph 993.7mb 55f 51f
7:36am 1 6 mph 994mb 55f 51f
7:30am 3 7 mph 994.3mb 55f 51f
7:24am 5 7 mph 994.6mb 55f 51f
7:18am 5 10 mph 994.8mb 55f 52f
7:12am 5 8 mph 994.9mb 55f 52f
7:06am 6 9 mph 994.9mb 55f 52f
7:00am 6 9 mph 994.9mb 55f 52f
6:54am 6 7 mph 995mb 55f 52f
6:48am 3 6 mph 995.1mb 55f 52f
6:42am 3 6 mph 995.5mb 55f 52f
6:36am 5 8 mph 995.7mb 55f 52f
6:30am 2 6 mph 995.9mb 55f 52f
6:24am 2 5 mph 996mb 55f 52f
6:18am 3 6 mph 996.2mb 55f 52f
6:12am 1 5 mph 996.5mb 55f 52f
6:06am 2 7 mph 996.7mb 55f 53f
6:00am 5 7 mph 996.9mb 55f 53f
5:54am 5 8 mph 997mb 55f 53f
5:48am 6 7 mph 997.1mb 55f 53f
5:42am 3 5 mph 997.2mb 55f 53f
5:36am 5 6 mph 997.3mb 55f 53f
5:30am 6 7 mph 997.4mb 55f 54f
5:24am 5 10 mph 997.4mb 55f 54f
5:18am 6 11 mph 997.5mb 55f 54f
5:12am 6 11 mph 997.6mb 55f 55f
5:06am 8 13 mph 997.7mb 55f 55f
5:00am 8 13 mph 997.7mb 55f 55f
4:54am 6 8 mph 997.8mb 55f 56f
4:48am 5 8 mph 997.8mb 55f 56f
4:42am 6 9 mph 997.9mb 55f 56f
4:36am 3 11 mph 998.1mb 55f 56f
4:30am 5 8 mph 998.3mb 55f 56f
4:24am 5 8 mph 998.4mb 55f 56f
4:18am 6 8 mph 998.5mb 55f 55f
4:12am 7 11 mph 998.7mb 55f 55f
4:06am 6 10 mph 998.8mb 55f 55f
4:00am 6 9 mph 999.1mb 55f 55f
3:54am 6 9 mph 999.4mb 55f 55f
3:48am 6 11 mph 999.6mb 55f 55f
3:42am 5 11 mph 999.7mb 55f 55f
3:36am 6 10 mph 1000.2mb 55f 55f
3:30am 6 10 mph 1000.2mb 55f 55f
3:24am 5 10 mph 1001.1mb 55f 55f
3:18am 6 11 mph 1001.1mb 55f 55f
3:12am 5 9 mph 1001.2mb 55f 54f
3:06am 6 10 mph 1001.4mb 55f 55f
3:00am 9 14 mph 1001.6mb 55f 55f
2:54am 6 10 mph 1001.9mb 55f 55f
2:48am 5 8 mph 1001.9mb 55f 55f
2:42am 3 8 mph 1002mb 55f 54f
2:36am 3 8 mph 1002.3mb 55f 54f
2:30am 2 6 mph 1002.5mb 55f 54f
2:24am 2 5 mph 1002.8mb 55f 53f
2:18am 3 7 mph 1003mb 55f 54f
2:12am 5 8 mph 1003.2mb 55f 54f
2:06am 3 7 mph 1003.3mb 55f 53f
2:00am 3 7 mph 1003.3mb 55f 54f
1:54am 5 10 mph 1003.6mb 55f 54f
1:48am 6 8 mph 1004.1mb 55f 54f
1:42am 5 10 mph 1004.3mb 55f 54f
1:36am 6 13 mph 1004.1mb 55f 54f
1:30am 6 10 mph 1004.4mb 55f 54f
1:24am 5 9 mph 1004.7mb 55f 53f
1:18am 6 10 mph 1004.8mb 55f 53f
1:12am 5 10 mph 1004.7mb 55f 53f
1:06am 6 11 mph 1004.9mb 55f 54f
1:00am 3 8 mph 1005.1mb 55f 53f
12:54am 7 10 mph 1005mb 55f 53f
12:48am 5 9 mph 1005.1mb 55f 53f
12:42am 6 8 mph 1005.1mb 55f 53f
12:36am 5 7 mph 1005.4mb 55f 53f
12:30am 6 10 mph 1005.6mb 55f 53f
12:24am 6 8 mph 1005.8mb 55f 53f
12:18am 6 8 mph 1005.8mb 55f 53f
12:12am 6 9 mph 1006mb 55f 53f
12:06am 6 9 mph 1006.2mb 55f 52f
12:00am 5
mph
1006.2mb 55f 51f
Thu 02/16 11:54pm 3 5 mph 1006.1mb 55f 51f
11:48pm 2 3 mph 1006.2mb 55f 51f
11:42pm 3 5 mph 1006.3mb 55f 52f
11:36pm 3 5 mph 1006.4mb 55f 52f
11:30pm 1 5 mph 1006.6mb 55f 52f
11:24pm 2 5 mph 1006.6mb 55f 52f
11:18pm 2 6 mph 1006.5mb 55f 52f
11:12pm 5 7 mph 1006.5mb 55f 52f
11:06pm 2 3 mph 1006.7mb 55f 51f
11:00pm 2 6 mph 1006.6mb 55f 52f
10:54pm 2 6 mph 1006.8mb 55f 52f
10:48pm 2 6 mph 1006.9mb 55f 51f
10:42pm 6 8 mph 1006.9mb 55f 51f
10:36pm 3 6 mph 1007.2mb 55f 50f
10:30pm 2 5 mph 1007.4mb 55f 49f
10:24pm 3 5 mph 1007.5mb 55f 49f
10:18pm 5 6 mph 1007.5mb 55f 49f
10:12pm 6
mph
1007.6mb 55f 49f
10:06pm 6 7 mph 1007.8mb 55f 49f
10:00pm 6 7 mph 1008mb 55f 49f
9:54pm 6
mph
1008.2mb 55f 49f
9:48pm 6
mph
1008.3mb 55f 49f
9:42pm 5 7 mph 1008.6mb 55f 49f
9:36pm 6 7 mph 1008.9mb 55f 49f
9:30pm 6 7 mph 1009.2mb 55f 49f
9:24pm 5 6 mph 1009.3mb 55f 49f
9:18pm 5 6 mph 1009.5mb 55f 49f
9:12pm 3 6 mph 1009.7mb 55f 50f
9:06pm 5 6 mph 1009.9mb 55f 50f
9:00pm 5 7 mph 1010mb 55f 50f
8:54pm 5 6 mph 1010.1mb 55f 50f
8:48pm 3 5 mph 1010.4mb 55f 50f
8:42pm 3 5 mph 1010.3mb 55f 50f
8:36pm 5 6 mph 1010.3mb 55f 50f
8:30pm 3 6 mph 1010.4mb 55f 50f
8:24pm 3 5 mph 1010.4mb 55f 50f
8:18pm 5 6 mph 1010.5mb 55f 50f
8:12pm 3 5 mph 1010.8mb 55f 50f
8:06pm 5 6 mph 1011mb 55f 50f
8:00pm 3 5 mph 1011.2mb 55f 50f
7:54pm 3 5 mph 1011.3mb 55f 50f
7:48pm 5 6 mph 1011.4mb 55f 49f
7:42pm 5 6 mph 1011.6mb 55f 49f
7:36pm 3 6 mph 1011.7mb 55f 50f
7:30pm 5 6 mph 1011.7mb 55f 50f
7:24pm 2 5 mph 1011.8mb 55f 50f
7:18pm 5
mph
1011.9mb 55f 50f
7:12pm 5
mph
1011.9mb 55f 50f
7:06pm 5 6 mph 1011.9mb 55f 50f
7:00pm 6
mph
1011.9mb 55f 50f
6:54pm 6
mph
1012mb 55f 50f
6:48pm 5 6 mph 1012.1mb 55f 51f
6:42pm 5
mph
1012.2mb 55f 51f
6:36pm 3 5 mph 1012.3mb 55f 51f
6:30pm 3 5 mph 1012.4mb 55f 51f
6:24pm 5
mph
1012.3mb 55f 51f
6:18pm 3 5 mph 1012.5mb 55f 51f
6:12pm 5
mph
1012.5mb 55f 52f
6:06pm 2
mph
1012.4mb 55f 52f
6:00pm  -  2 mph 1012.5mb 55f 54f
5:54pm 2 3 mph 1012.6mb 55f 54f
5:48pm 2 3 mph 1012.7mb 55f 54f
5:42pm 2 3 mph 1012.8mb 55f 54f
5:36pm 2
mph
1012.7mb 55f 54f
5:30pm 2
mph
1012.6mb 55f 55f
5:24pm  -  2 mph 1012.5mb 55f 55f
5:18pm 2 5 mph 1012.6mb 55f 55f
5:12pm 3
mph
1012.7mb 55f 55f
5:06pm 3
mph
1012.6mb 55f 55f
5:00pm 2 3 mph 1012.6mb 55f 56f
4:54pm 2
mph
1012.6mb 55f 56f
4:48pm 2 3 mph 1012.7mb 55f 56f
4:42pm 2 3 mph 1012.8mb 55f 56f
4:36pm 2 3 mph 1012.8mb 55f 56f
4:30pm 2 5 mph 1013.1mb 55f 56f
4:24pm 3
mph
1013.2mb 55f 56f
4:18pm 3 5 mph 1013.4mb 55f 56f
4:12pm 3 5 mph 1013.4mb 55f 56f
4:06pm 3 5 mph 1013.6mb 55f 55f
4:00pm 5 6 mph 1013.6mb 55f 55f
3:54pm 2 3 mph 1013.5mb 55f 56f
3:48pm 2
mph
1013.5mb 55f 56f
3:42pm 2
mph
1013.5mb 55f 55f
3:36pm  -  1 mph 1013.5mb 55f 56f
3:30pm  -  1 mph 1013.4mb 55f 56f
3:24pm  -  3 mph 1013.3mb 55f 55f
3:18pm 2 3 mph 1013.9mb 55f 55f
3:12pm 2 3 mph 1014mb 55f 55f
3:06pm 2
mph
1014.3mb 55f 55f
3:00pm 2 3 mph 1014.5mb 55f 55f
2:54pm 3
mph
1014.7mb 55f 55f
2:48pm 3
mph
1014.7mb 55f 55f
2:42pm 2 3 mph 1014.6mb 55f 55f
2:36pm 2 3 mph 1014.6mb 55f 55f
2:30pm 3 7 mph 1014.8mb 55f 56f
2:24pm 5 6 mph 1014.8mb 55f 55f
2:18pm 5 6 mph 1014.8mb 55f 56f
2:12pm 5 6 mph 1014.7mb 55f 55f
2:06pm 5 6 mph 1014.7mb 55f 55f
2:00pm 5 6 mph 1014.6mb 55f 55f
1:54pm 6 7 mph 1014.5mb 55f 55f
1:48pm 6 8 mph 1014.4mb 55f 55f
1:42pm 7 10 mph 1014.3mb 55f 55f
1:36pm 8 11 mph 1014.3mb 55f 55f
1:30pm 9 11 mph 1014.3mb 55f 55f
1:24pm 10 14 mph 1014.3mb 55f 55f
1:18pm 10 13 mph 1014.4mb 55f 55f
1:12pm 7 9 mph 1014.4mb 55f 55f
1:06pm 7 8 mph 1014.3mb 55f 55f
1:00pm 7 11 mph 1014.3mb 55f 55f
12:54pm 7 11 mph 1014.3mb 55f 55f
12:48pm 11 17 mph 1014.3mb 55f -
12:42pm 13 15 mph 1014.4mb 55f 55f
12:36pm 9 13 mph 1014.4mb 55f 55f
12:30pm 7 9 mph 1014.4mb 55f 55f
12:24pm 9 14 mph 1014.4mb 55f 55f
12:18pm 10 14 mph 1014.3mb 55f 55f
12:12pm 7 8 mph 1014.3mb 55f 55f
12:06pm 7 9 mph 1014.3mb 55f 55f
12:00pm 8 9 mph 1014.4mb 55f 55f
11:54am 8 10 mph 1014.5mb 55f 55f
11:48am 9 10 mph 1014.5mb 55f 55f
11:42am 9 10 mph 1014.5mb 55f 55f
11:36am 8 9 mph 1014.5mb 55f 55f
11:30am 8 9 mph 1014.5mb 55f 55f
11:24am 7 11 mph 1014.4mb 55f 56f
11:18am 10 11 mph 1014.5mb 55f 55f
11:12am 9 11 mph 1014.4mb 55f 55f
11:06am 9 11 mph 1014.4mb 55f 55f
11:00am 10 13 mph 1014.3mb 55f 55f
10:54am 9 11 mph 1014.3mb 55f 55f
10:48am 9 11 mph 1014.3mb 55f 55f
10:42am 9 11 mph 1014.2mb 55f 55f
10:36am 9 11 mph 1014.2mb 55f 55f
10:30am 8 9 mph 1014.2mb 55f 55f
10:24am 7 8 mph 1014.1mb 55f 55f
10:18am 8 11 mph 1014.1mb 55f 55f
10:12am 8 11 mph 1014.1mb 55f 55f
10:06am 8 10 mph 1013.9mb 55f 55f
10:00am 8 9 mph 1013.7mb 55f 55f
9:54am 7 9 mph 1013.5mb 55f 55f
9:48am 9 10 mph 1013.4mb 55f 55f
9:42am 7 8 mph 1013.3mb 55f 55f
9:36am 8 9 mph 1013.1mb 55f 55f
9:30am 8 11 mph 1013mb 55f 55f
9:24am 8 10 mph 1012.9mb 55f 55f
9:18am 9 11 mph 1012.9mb 55f 55f
9:12am 9 13 mph 1012.8mb 55f 55f
9:06am 10 14 mph 1012.7mb 55f 55f
9:00am 10 13 mph 1012.6mb 55f 55f
8:54am 9 11 mph 1012.5mb 55f 56f
8:48am 9 11 mph 1012.5mb 55f -
8:42am 8 10 mph 1012.4mb 55f 55f
8:36am 8 10 mph 1012.4mb 55f 55f
8:30am 8 9 mph 1012.4mb 55f 56f
8:24am 8 11 mph 1012.4mb 55f 56f
8:18am 8 10 mph 1012.3mb 55f 56f
8:12am 9 10 mph 1012.2mb 55f 56f
8:06am 8 13 mph 1012.1mb 55f 56f
8:00am 9 11 mph 1011.9mb 55f 56f
7:54am 9 11 mph 1011.8mb 55f 56f
7:48am 8 11 mph 1011.8mb 55f 56f
7:42am 9 13 mph 1011.7mb 55f 56f
7:36am 9 13 mph 1011.6mb 55f 56f
7:30am 10 11 mph 1011.5mb 55f 56f
7:24am 10 14 mph 1011.5mb 55f 56f
7:18am 8 11 mph 1011.4mb 55f 56f
7:12am 9 11 mph 1011.4mb 55f 56f
7:06am 10 14 mph 1011.3mb 55f 56f
7:00am 9 15 mph 1011.3mb 55f 56f
6:54am 9 13 mph 1011.1mb 55f 56f
6:48am 8 14 mph 1011mb 55f 56f
6:42am 9 13 mph 1011.2mb 55f 56f
6:36am 9 14 mph 1011mb 55f 56f
6:30am 10 14 mph 1010.9mb 55f 56f
6:24am 11 16 mph 1010.8mb 55f 56f
6:18am 13 17 mph 1010.7mb 55f 56f
6:12am 11 15 mph 1010.7mb 55f 56f
6:06am 10 15 mph 1010.6mb 55f 56f
6:00am 10 15 mph 1010.6mb 55f 56f
5:54am 9 15 mph 1010.5mb 55f 55f
5:48am 7 14 mph 1010.3mb 55f 55f
5:42am 9 15 mph 1010.3mb 55f 55f
5:36am 7 16 mph 1010.2mb 55f 55f
5:30am 7 15 mph 1010.2mb 55f 55f
5:24am 3 14 mph 1010.2mb 55f 55f
5:18am 5 8 mph 1010.1mb 55f 55f
5:12am 3 7 mph 1009.9mb 55f 55f
5:06am 2 7 mph 1009.8mb 55f 55f
5:00am 3 8 mph 1009.8mb 55f 55f
4:54am 5 13 mph 1009.9mb 55f 55f
4:48am 3 9 mph 1009.9mb 55f 55f
4:42am 5 9 mph 1009.7mb 55f 55f
4:36am 2 13 mph 1009.5mb 55f 55f
4:30am 2 13 mph 1009.5mb 55f 55f
4:24am 6 11 mph 1009.4mb 55f 55f
4:18am 6 14 mph 1009.5mb 55f 55f
4:12am 7 17 mph 1009.5mb 55f 55f
4:06am 10 16 mph 1009.4mb 55f 55f
4:00am 10 15 mph 1009.3mb 55f 55f
3:54am 8 11 mph 1009.3mb 55f 54f
3:48am 9 13 mph 1009.3mb 55f 54f
3:42am 10 13 mph 1009.2mb 55f 54f
3:36am 8 13 mph 1009.1mb 55f 54f
3:30am 9 14 mph 1009mb 55f 54f
3:24am 10 14 mph 1009.1mb 55f 54f
3:18am 9 11 mph 1009.2mb 55f 54f
3:12am 6 13 mph 1009.2mb 55f 54f
3:06am 7 9 mph 1009.2mb 55f 54f
3:00am 7 9 mph 1009.2mb 55f 54f
2:54am 8 13 mph 1009mb 55f 54f
2:48am 3 6 mph 1009mb 55f 54f
2:42am 5 11 mph 1009.1mb 55f 54f
2:36am 7 10 mph 1009.4mb 55f 54f
2:30am 8 14 mph 1009.4mb 55f 54f
2:24am 11 14 mph 1009.6mb 55f 54f
2:18am 13 16 mph 1009.7mb 55f 55f
2:12am 14 17 mph 1010mb 55f 55f
2:06am 16 23 mph 1009.9mb 55f 55f
2:00am 20 33 mph 1010.1mb 55f 55f
1:54am 16 36 mph 1010.1mb 55f 56f
1:48am 5 15 mph 1009.3mb 55f 56f
1:42am 8 11 mph 1008.5mb 55f 55f
1:36am 6 24 mph 1008.6mb 55f 55f
1:30am 8 20 mph 1008.6mb 55f 55f
1:24am 13 24 mph 1008.8mb 55f 55f
1:18am 17 31 mph 1008.9mb 55f 55f
1:12am 20 28 mph 1008.5mb 55f 55f
1:06am 18 29 mph 1008.6mb 55f 55f
1:00am 17 28 mph 1008.8mb 55f 56f
12:54am 22 30 mph 1008.6mb 55f 56f
12:48am 22 31 mph 1008.6mb 55f 56f
12:42am 23 31 mph 1008.5mb 55f 56f
12:36am 21 28 mph 1008.7mb 55f 56f
12:30am 22 28 mph 1008.9mb 55f 56f
12:24am 18 32 mph 1008.8mb 55f 56f
12:18am 21 31 mph 1009mb 55f 56f
12:12am 22 30 mph 1008.7mb 55f 57f
12:06am 10 30 mph 1009mb 55f 57f
12:00am 10 30 mph 1009mb 55f 57f
Wed 02/15 11:54pm 21 32 mph 1009mb 55f 58f
11:48pm 24 33 mph 1008.3mb 55f 58f
11:42pm 23 34 mph 1008.1mb 55f 58f
11:36pm 24 37 mph 1008.1mb 55f 58f
11:30pm 23 32 mph 1008.5mb 55f 58f
11:24pm 22 30 mph 1008.7mb 55f 58f
11:18pm 24 32 mph 1008.8mb 55f 58f
11:12pm 22 34 mph 1009.3mb 55f 58f
11:06pm 21 33 mph 1009.4mb 55f 58f
11:00pm 23 32 mph 1009.7mb 55f 59f
10:54pm 23 31 mph 1010mb 55f 59f
10:48pm 23 30 mph 1009.8mb 55f -
10:42pm 20 32 mph 1009.8mb 55f -
10:36pm 24 33 mph 1009.9mb 55f -
10:30pm 22 33 mph 1009.9mb 55f 59f
10:24pm 23 37 mph 1009.9mb 55f 59f
10:18pm 24 34 mph 1010.2mb 55f 59f
10:12pm 23 34 mph 1010.2mb 55f 59f
10:06pm 26 36 mph 1010.3mb 55f 59f
10:00pm 24 32 mph 1010.7mb 55f 59f
9:54pm 24 30 mph 1011.2mb 55f 59f
9:48pm 23 30 mph 1011.4mb 55f 59f
9:42pm 21 34 mph 1010.7mb 55f 59f
9:36pm 20 29 mph 1011.6mb 55f 59f